TimeEST,TemperatureF,Dew PointF,Humidity,Sea Level PressureIn,VisibilityMPH,Wind Direction,Wind SpeedMPH,Gust SpeedMPH,PrecipitationIn,Events,Conditions,WindDirDegrees,DateUTC
12:16 AM,35.6,33.8,93,30.11,10.0,NW,12.7,-,N/A,,Overcast,320,2012-12-09 05:16:00
12:56 AM,34.9,32.0,89,30.16,10.0,NW,15.0,-,N/A,,Overcast,320,2012-12-09 05:56:00
1:19 AM,35.6,30.2,81,30.14,10.0,NW,6.9,-,N/A,,Overcast,320,2012-12-09 06:19:00
2:56 AM,32.9,28.0,82,30.21,10.0,NNW,9.2,-,N/A,,Overcast,330,2012-12-09 07:56:00
3:56 AM,32.9,28.0,82,30.21,10.0,NW,8.1,-,N/A,,Overcast,320,2012-12-09 08:56:00
4:56 AM,32.0,28.0,85,30.25,10.0,NW,8.1,-,N/A,,Overcast,320,2012-12-09 09:56:00
5:56 AM,32.0,28.0,85,30.26,10.0,NNW,3.5,-,N/A,,Overcast,340,2012-12-09 10:56:00
6:22 AM,32.0,28.4,87,30.23,10.0,NNW,5.8,-,N/A,,Overcast,330,2012-12-09 11:22:00
6:56 AM,32.0,28.0,85,30.27,10.0,North,3.5,-,N/A,,Overcast,350,2012-12-09 11:56:00
7:56 AM,32.0,28.0,85,30.28,10.0,NNW,3.5,-,N/A,,Overcast,330,2012-12-09 12:56:00
8:56 AM,32.0,29.1,89,30.29,10.0,North,4.6,-,N/A,,Overcast,350,2012-12-09 13:56:00
9:56 AM,34.0,28.0,79,30.30,10.0,East,5.8,-,N/A,,Overcast,90,2012-12-09 14:56:00
10:28 AM,35.6,28.4,75,30.25,10.0,SE,10.4,-,N/A,,Mostly Cloudy,130,2012-12-09 15:28:00
10:56 AM,34.9,29.1,79,30.27,10.0,NNE,4.6,-,N/A,,Mostly Cloudy,30,2012-12-09 15:56:00
11:29 AM,35.6,28.4,75,30.22,10.0,Variable,5.8,-,N/A,,Overcast,0,2012-12-09 16:29:00
11:56 AM,36.9,28.0,70,30.25,10.0,SSE,4.6,-,N/A,,Overcast,160,2012-12-09 16:56:00
12:56 PM,37.9,29.1,71,30.21,10.0,ESE,5.8,-,N/A,,Mostly Cloudy,110,2012-12-09 17:56:00
1:56 PM,38.8,29.1,68,30.19,10.0,SE,4.6,-,N/A,,Mostly Cloudy,140,2012-12-09 18:56:00
2:56 PM,38.8,29.1,68,30.18,10.0,East,4.6,-,N/A,,Overcast,100,2012-12-09 19:56:00
3:56 PM,38.8,29.1,68,30.16,10.0,ESE,3.5,-,N/A,,Overcast,110,2012-12-09 20:56:00
4:56 PM,38.8,28.0,65,30.15,10.0,East,3.5,-,N/A,,Overcast,80,2012-12-09 21:56:00
5:56 PM,37.9,30.0,73,30.12,10.0,ESE,8.1,-,0.00,Rain,Light Rain Showers,120,2012-12-09 22:56:00
6:56 PM,38.8,30.0,71,30.08,10.0,ESE,9.2,-,0.00,,Overcast,120,2012-12-09 23:56:00
7:56 PM,37.9,32.0,79,30.04,10.0,SE,11.5,-,N/A,,Overcast,140,2012-12-10 00:56:00
8:56 PM,37.9,32.9,82,30.01,10.0,SSE,17.3,23.0,0.00,Rain,Light Rain Showers,150,2012-12-10 01:56:00
9:56 PM,37.9,34.9,89,29.98,10.0,SSE,12.7,21.9,0.00,Rain,Light Rain,160,2012-12-10 02:56:00
10:47 PM,37.4,37.4,100,29.92,10.0,SSE,15.0,-,0.00,Rain,Light Rain,150,2012-12-10 03:47:00
10:56 PM,38.8,36.9,93,29.94,10.0,SSE,18.4,-,0.00,Rain,Light Rain,150,2012-12-10 03:56:00
11:56 PM,39.9,37.9,93,29.90,10.0,SSE,15.0,23.0,0.00,,Overcast,150,2012-12-10 04:56:00